Flag for Poland Weather past 2 weeks in Płock, Poland

Now
38 °F

Duststorm.


Feels Like: 38 °F
Forecast: 37 / 54 °F
Wind: 1 mph from North

Location: Plock

Current Time: Mar 28, 2015 at 5:59:46 AM

Latest Report: Mar 28, 2015 at 4:00 AM


Visibility: 1 mi

Pressure: 30.01 "Hg

Humidity: 97%

Dew point: 37 °F

Location of PłockLocation

Historic Weather in Płock — Graph

°F

Płock temperature yesterday

Maximum temperature yesterday: 50 °F (at 1:00 AM)
Minimum temperature yesterday: 41 °F (at 11:00 PM)
Average temperature yesterday: 45 °F

Past Weeks' High & Low Weather Summary

 TemperatureHumidityPressure
High61 °F (Mar 25, 4:00 PM)99% (Mar 27, 6:00 AM)30.73 "Hg (Mar 27, 6:00 AM)
Low24 °F (Mar 23, 5:00 AM)26% (Mar 18, 1:00 PM)29.72 "Hg (Mar 26, 2:00 PM)
Average42 °F68%30.23 "Hg
* Reported Mar 13 4:00 AM — Mar 28 4:00 AM, Płock, Weather by CustomWeather, © 2015

Note: Actual official high and low records may vary slightly from our data, if they occured in-between our weather recording intervals... More about our weather records

Advertising

Płock weather history for previous 24 hours

 ConditionsComfort  
Time TempWeatherWind HumidityBarometerVisibility
4:00 AM
Sat, Mar 28
38 °FDuststorm.1 mph97%30.01 "Hg1 mi
3:00 AM39 °FFog.2 mph97%30.01 "Hg1 mi
2:00 AM40 °FFog.1 mph96%30.01 "Hg1 mi
1:00 AM41 °FFog.2 mph95%30.01 "Hg2 mi
12:00 AM41 °FFog.1 mph95%30.00 "Hg2 mi
11:00 PM
Fri, Mar 27
41 °FFog.2 mph92%29.99 "Hg4 mi
9:00 PM42 °FQuite cool.2 mph90%29.98 "Hg4 mi
8:00 PM42 °FLight rain. Overcast.3 mph90%29.96 "Hg4 mi
7:00 PM42 °FRain showers. Overcast.3 mph92%29.94 "Hg3 mi
6:00 PM43 °FRain showers. Overcast.6 mph92%29.93 "Hg3 mi
5:00 PM43 °FSprinkles. Cloudy.6 mph91%29.92 "Hg4 mi
4:00 PM43 °FFog.6 mph93%29.88 "Hg3 mi
3:00 PM43 °FDrizzle. Cloudy.6 mph96%29.88 "Hg2 mi
2:00 PM45 °FQuite cool.5 mph96%29.87 "Hg1 mi
1:00 PM47 °FFog.5 mph97%29.85 "Hg1 mi
12:00 PM47 °FFog.5 mph94%29.83 "Hg1 mi
11:00 AM49 °FFog.3 mph92%29.82 "Hg1 mi
10:00 AM49 °FFog.1 mph93%29.81 "Hg1 mi
9:00 AM47 °FCool.2 mph96%29.80 "Hg1 mi
8:00 AM45 °FCool.3 mph98%29.79 "Hg1 mi
7:00 AM44 °FLight rain. Cloudy.1 mph99%29.79 "Hg1 mi
6:00 AM44 °FLight rain. Cloudy.2 mph99%29.78 "Hg0 mi
5:00 AM43 °FRain showers. Cloudy.2 mph98%29.77 "Hg0 mi
Weather by CustomWeather, © 2015

See weather overviewHow to use our weather pages